Content
SEND FEEDBACK

Daily
Averages
Monthly
Summary
United States of America

STEWARTVILLE, MINNESOTA


Home > North America > United States > Minnesota
Elevation: 1271 feet     Latitude: 43 55N     Longitude: 092 30W

WEATHER
 
SELECT A DAY
Number of Records: 219,414;   Date Range: 1/1/95 - 7/22/14
 
SHARE

PRINT THIS DATA

[ ← Previous Day ]
WEATHER ALMANAC - FEBRUARY 13, 2013
[ Next Day → ]
[ °C ]   °F
Weather ElementAverageHighLow
Temperature30.5 °F36 °F (3:54 pm)19.9 °F (6:54 am)
Dewpoint25.5 °F32 °F (9:54 pm)16 °F (6:54 am)
Humidity81.7 %87 % (10:04 pm)75 % (11:54 am)
Barometer29.72 in29.83 in (1:54 am)29.56 in (10:04 pm)
Wind Speed9.4 mph12.7 mph (9:54 pm)
Weather ElementAverage
Visibility9.2 mi
Wind DirectionWSW (233.2 °)

Weather ElementTotal
Precipitation0.01 in
Heating Degree Days37.1 (Base 65)
Averaged from 25 records on February 13, 2013
WEATHER CONDITIONS BREAKOUT
WIND DIRECTION BREAKOUT
WEATHER BY HOUR - FEBRUARY 13, 2013
[ °C ]   °F
Local TimeTemperatureDewpointHumidityBarometerVisibilityWind DirectionWind SpeedGust SpeedPrecipitationEventsConditions
1:54 AM24.1 °F19.0 °F81 %29.83 in9.0 miWSW (250°)8.1 mphOvercast
2:54 AM23.0 °F18.0 °F81 %29.82 in10.0 miWest (270°)8.1 mphClear
3:54 AM21.9 °F18.0 °F85 %29.81 in10.0 miWest (260°)10.4 mphClear
4:54 AM21.9 °F18.0 °F85 %29.81 in10.0 miWest (270°)6.9 mphScattered Clouds
5:54 AM21.0 °F17.1 °F85 %29.80 in9.0 miWest (270°)9.2 mphClear
6:54 AM19.9 °F16.0 °F85 %29.80 in10.0 miWSW (250°)8.1 mphClear
7:54 AM21.9 °F17.1 °F82 %29.79 in9.0 miWSW (250°)5.8 mphClear
8:54 AM25.0 °F19.9 °F81 %29.78 in8.0 miWSW (250°)10.4 mphClear
9:54 AM28.9 °F23.0 °F78 %29.78 in8.0 miWest (270°)10.4 mphMostly Cloudy
10:54 AM30.0 °F24.1 °F79 %29.77 in8.0 miWest (260°)9.2 mphOvercast
11:54 AM33.1 °F26.1 °F75 %29.75 in9.0 miWSW (250°)6.9 mphOvercast
12:54 PM34.0 °F27.0 °F75 %29.75 in10.0 miWSW (250°)9.2 mphOvercast
1:54 PM34.0 °F28.0 °F79 %29.73 in9.0 miSW (230°)10.4 mphOvercast
2:54 PM34.0 °F28.0 °F79 %29.72 in9.0 miSSW (210°)9.2 mphOvercast
3:54 PM36.0 °F28.9 °F76 %29.71 in8.0 miSSW (200°)10.4 mphMostly Cloudy
4:54 PM35.1 °F28.9 °F78 %29.70 in8.0 miSSW (200°)10.4 mphOvercast
5:54 PM35.1 °F30.0 °F82 %29.70 in9.0 miSouth (180°)6.9 mphOvercast
6:54 PM34.0 °F30.0 °F85 %29.68 in8.0 miSSE (160°)8.1 mphOvercast
7:54 PM35.1 °F30.9 °F85 %29.65 in10.0 miSouth (180°)8.1 mph0.00 inOvercast
8:54 PM36.0 °F30.9 °F82 %29.62 in10.0 miSouth (190°)9.2 mph0.00 inRainLight Rain
9:54 PM36.0 °F32.0 °F86 %29.60 in10.0 miSW (230°)12.7 mph0.01 inRainLight Rain
10:04 PM35.6 °F32.0 °F87 %29.56 in10.0 miSW (230°)11.5 mph0.00 inOvercast
10:15 PM35.6 °F32.0 °F87 %29.56 in10.0 miSW (230°)11.5 mph0.00 inRainLight Rain
10:54 PM36.0 °F30.9 °F82 %29.60 in10.0 miWSW (240°)10.4 mph0.00 inOvercast
11:54 PM36.0 °F30.9 °F82 %29.59 in10.0 miWSW (250°)12.7 mphOvercast
Hourly data recorded from KRST, located miles away from Stewartville, Minnesota







STORIES FROM OUR PARTNERS